Regional Weather Roundup
Issued by NWS Kansas City/Pleasant Hill, MO

Home | Current Version | Previous Version | Text Only | Print | Product List | Glossary On
Versions: 1 2 3 4 5 6 7 8 9 10 11 12 13 14 15 16 17 18 19 20 21 22 23 24 25 26 27 28 29 30 31 32 33 34 35 36 37 38 39 40 41 42 43 44 45 46 47 48 49 50
000
ASUS43 KEAX 140510
RWREAX

WEATHER ROUNDUP FOR EASTERN KANSAS AND NORTHWEST MISSOURI
NATIONAL WEATHER SERVICE KANSAS CITY/PLEASANT HILL MO
1100 PM CST WED DEC 13 2017

KSZ040-057-103>105-MOZ028-029-037-043-140600-
...KANSAS CITY METROPOLITAN AREA...

CITY           SKY/WX    TMP DP  RH WIND       PRES   REMARKS
K.C. INTL      PTCLDY    34  27  75 NW6       29.96R WCI  29
K.C. DOWNTOWN  PTCLDY    40  27  59 W6        29.97R
LEES SUMMIT    MOCLDY    39  28  64 NW12      29.96R WCI  32
OLATHE - IXD   CLEAR     32  26  78 NW9       29.98R WCI  24
OLATHE - OJC   CLEAR     38  28  67 N8        29.96R WCI  32
LAWRENCE       CLEAR     33  25  72 NW6       29.98R WCI  28

$$

MOZ001>008-011>017-020>025-030>033-038>040-044>046-053-054-140600-
...NORTHERN AND CENTRAL MISSOURI...

CITY           SKY/WX    TMP DP  RH WIND       PRES   REMARKS
ST. JOSEPH     CLOUDY    40  29  64 N10       29.97R WCI  33
MOSBY          CLOUDY    37  28  70 N7        29.96R WCI  32
WARRENSBURG    CLEAR     36  28  75 W6        29.96R WCI  31
WHITEMAN AFB   PTCLDY    37  26  66 W8        29.90R WCI  30
CLINTON        CLEAR     37  27  65 N6        29.96R WCI  33
SEDALIA        CLEAR     40  28  62 N16       29.92R WCI  31
WARSAW         NOT AVBL
CHILLICOTHE      N/A     39  25  57 N7        29.95R WCI  34
KIRKSVILLE     CLOUDY    35  25  66 NW12G18   29.90R WCI  27

$$

MOZ041-047>049-056>058-063>065-088>090-097-140600-
...EASTERN AND SOUTHERN MISSOURI...

CITY           SKY/WX    TMP DP  RH WIND       PRES   REMARKS
ST. LOUIS INTL CLOUDY    40  26  57 NW21G31   29.84R WCI  30
SPIRIT OF STL  CLOUDY    41  27  57 NW16G30   29.86R WCI  33
COLUMBIA       CLOUDY    40  26  57 N21G28    29.89R WCI  30
JEFFERSON CITY CLOUDY    43  27  53 N13G22    29.90R
ROLLA          CLEAR     40  29  64 N13       29.87R WCI  32
OSAGE BEACH    PTCLDY    42  28  57 NW10      29.92R
SPRINGFIELD    CLEAR     41  27  57 N9        29.89R
BRANSON        CLEAR     46  25  42 NW8       29.89R
JOPLIN         CLEAR     40  27  59 N7        29.93R
WEST PLAINS    CLEAR     44  26  49 NW6       29.85S

$$

IAZ060-094-KSZ022-034>040-054-083-096-NEZ052-066-093-140600-
...KANSAS...SOUTHEAST NEBRASKA AND IOWA...

CITY           SKY/WX    TMP DP  RH WIND       PRES   REMARKS
TOPEKA         CLEAR     36  28  73 N7        29.98S WCI  30
MANHATTAN      CLEAR     39  27  62 N6        30.00R WCI  35
EMPORIA        CLEAR     38  26  62 N14       29.97R WCI  30
CHANUTE        CLEAR     41  26  55 N7        29.95R
WICHITA        PTCLDY    38  23  55 NW9       29.97R WCI  31
OMAHA          CLOUDY    39  26  59 N15       29.98R WCI  31
LINCOLN        CLOUDY    39  25  57 N18       30.02R WCI  30
FALLS CITY     CLOUDY    38  27  64 NW7       29.97R WCI  33
LAMONI         CLOUDY    35  22  58 NW14G20   29.93R WCI  26
DES MOINES     CLOUDY    32  20  61 N18G24    29.94R WCI  20

$$




USA.gov is the U.S. government's official web portal to all federal, state and local government web resources and services.